This demonstration page uses our WeatherBlox Daily Observations layout. Learn more.

Left ArrowRight Arrow

Hourly Observations for August 12, 2022

Temp ( °F °C ) Dew Point ( °F °C ) Humidity (%) Winds ( mph kmh ) Pressure ( in mb ) Visibility ( mi km ) Precip ( " mm )
12:53 am 00:53 Clear 73 22.8 34 1.1 24 24 N 3 6 29.92 1013 10 16 0.00 0.00
1:53 am 01:53 Clear 71 21.7 35 1.7 27 27 Calm 29.92 1013 10 16 0.00 0.00
2:53 am 02:53 Clear 68 20 37 2.8 32 32 Calm 29.93 1014 10 16 0.00 0.00
3:53 am 03:53 Clear 67 19.4 36 2.2 32 32 Calm 29.94 1014 10 16 0.00 0.00
4:53 am 04:53 Clear 64 17.8 37 2.8 37 37 NNE 3 6 29.95 1014 10 16 0.00 0.00
5:53 am 05:53 Clear 63 17.2 36 2.2 36 36 N 3 6 29.96 1015 10 16 0.00 0.00
6:53 am 06:53 Sunny 62 16.7 38 3.3 41 41 NNE 3 6 29.97 1015 10 16 0.00 0.00
7:53 am 07:53 Sunny 69 20.6 37 2.8 31 31 Calm 29.98 1015 10 16 0.00 0.00
8:53 am 08:53 Sunny 75 23.9 39 3.9 27 27 Calm 29.98 1015 10 16 0.00 0.00
9:53 am 09:53 Sunny 79 26.1 42 5.6 27 27 VRB 5 7 29.98 1015 10 16 0.00 0.00
10:53 am 10:53 Sunny 83 28.3 44 6.7 26 26 VRB 3 6 29.97 1015 10 16 0.00 0.00
11:53 am 11:53 Sunny 88 31.1 42 5.6 20 20 Calm 29.96 1015 10 16 0.00 0.00
12:53 pm 12:53 Sunny 90 32.2 41 5 18 18 S 7 11 29.95 1014 10 16 0.00 0.00
1:53 pm 13:53 Sunny 93 33.9 37 2.8 14 14 S 10 17 29.93 1014 10 16 0.00 0.00
2:53 pm 14:53 Sunny 95 35 32 0 11 11 S 12 19 29.91 1013 10 16 0.00 0.00
3:53 pm 15:53 Sunny 97 36.1 30 -1.1 9 9 S 9 15 29.89 1012 10 16 0.00 0.00
4:53 pm 16:53 Sunny 96 35.6 30 -1.1 10 10 S 10 17 29.88 1012 10 16 0.00 0.00
5:53 pm 17:53 Sunny 96 35.6 29 -1.7 9 9 SSE 13 20 29.86 1011 10 16 0.00 0.00
6:53 pm 18:53 Sunny 95 35 29 -1.7 10 10 S 10 17 29.85 1011 10 16 0.00 0.00
7:53 pm 19:53 Sunny 91 32.8 36 2.2 14 14 SSE 7 11 29.87 1011 10 16 0.00 0.00
8:53 pm 20:53 Clear 86 30 38 3.3 18 18 S 5 7 29.88 1012 10 16 0.00 0.00
9:53 pm 21:53 Clear 82 27.8 38 3.3 21 21 N 3 6 29.90 1013 10 16 0.00 0.00
10:53 pm 22:53 Clear 79 26.1 39 3.9 24 24 Calm 29.91 1013 10 16 0.00 0.00
11:53 pm 23:53 Clear 77 25 38 3.3 24 24 ESE 3 6 29.91 1013 10 16 0.00 0.00

Powered by AerisWeather